Year,Month,Day,Hour,Minute,Value (Times are PST for temperature in C)
2004,04,30,00,00,12.50
2004,04,30,00,01,12.50
2004,04,30,00,02,12.50
2004,04,30,00,03,12.50
2004,04,30,00,04,12.50
2004,04,30,00,05,12.50
2004,04,30,00,06,12.50
2004,04,30,00,07,12.60
2004,04,30,00,08,12.50
2004,04,30,00,09,12.50
2004,04,30,00,10,12.50
2004,04,30,00,11,12.50
2004,04,30,00,12,12.50
2004,04,30,00,13,12.50
2004,04,30,00,14,12.50
2004,04,30,00,15,12.40
2004,04,30,00,16,12.30
2004,04,30,00,17,12.20
2004,04,30,00,18,12.20
2004,04,30,00,19,12.10
2004,04,30,00,20,12.20
2004,04,30,00,21,12.30
2004,04,30,00,22,12.20
2004,04,30,00,23,12.20
2004,04,30,00,24,12.10
2004,04,30,00,25,12.10
2004,04,30,00,26,12.00
2004,04,30,00,27,11.90
2004,04,30,00,28,11.90
2004,04,30,00,29,11.80
2004,04,30,00,30,11.80
2004,04,30,00,31,11.90
2004,04,30,00,32,12.00
2004,04,30,00,33,12.10
2004,04,30,00,34,12.20
2004,04,30,00,35,12.30
2004,04,30,00,36,12.30
2004,04,30,00,37,12.20
2004,04,30,00,38,12.10
2004,04,30,00,39,12.20
2004,04,30,00,40,12.30
2004,04,30,00,41,12.40
2004,04,30,00,42,12.40
2004,04,30,00,43,12.50
2004,04,30,00,44,12.50
2004,04,30,00,45,12.50
2004,04,30,00,46,12.50
2004,04,30,00,47,12.50
2004,04,30,00,48,12.40
2004,04,30,00,49,12.40
2004,04,30,00,50,12.40
2004,04,30,00,51,12.40
2004,04,30,00,52,12.40
2004,04,30,00,53,12.40
2004,04,30,00,54,12.40
2004,04,30,00,55,12.50
2004,04,30,00,56,12.40
2004,04,30,00,57,12.40
2004,04,30,00,58,12.30
2004,04,30,00,59,12.30
2004,04,30,01,00,12.30
2004,04,30,01,01,12.30
2004,04,30,01,02,12.30
2004,04,30,01,03,12.40
2004,04,30,01,04,12.60
2004,04,30,01,05,12.70
2004,04,30,01,06,12.80
2004,04,30,01,07,12.80
2004,04,30,01,08,12.80
2004,04,30,01,09,12.80
2004,04,30,01,10,12.80
2004,04,30,01,11,12.80
2004,04,30,01,12,12.80
2004,04,30,01,13,12.70
2004,04,30,01,14,12.60
2004,04,30,01,15,12.50
2004,04,30,01,16,12.30
2004,04,30,01,17,12.20
2004,04,30,01,18,12.10
2004,04,30,01,19,12.10
2004,04,30,01,20,12.10
2004,04,30,01,21,12.10
2004,04,30,01,22,12.10
2004,04,30,01,23,12.10
2004,04,30,01,24,12.10
2004,04,30,01,25,12.10
2004,04,30,01,26,12.10
2004,04,30,01,27,12.10
2004,04,30,01,28,12.20
2004,04,30,01,29,12.20
2004,04,30,01,30,12.20
2004,04,30,01,31,12.20
2004,04,30,01,32,12.20
2004,04,30,01,33,12.20
2004,04,30,01,34,12.20
2004,04,30,01,35,12.10
2004,04,30,01,36,12.10
2004,04,30,01,37,12.10
2004,04,30,01,38,12.10
2004,04,30,01,39,12.00
2004,04,30,01,40,12.00
2004,04,30,01,41,12.00
2004,04,30,01,42,12.00
2004,04,30,01,43,12.00
2004,04,30,01,44,12.00
2004,04,30,01,45,12.00
2004,04,30,01,46,12.00
2004,04,30,01,47,12.00
2004,04,30,01,48,12.10
2004,04,30,01,49,12.10
2004,04,30,01,50,12.10
2004,04,30,01,51,12.10
2004,04,30,01,52,12.00
2004,04,30,01,53,12.00
2004,04,30,01,54,12.00
2004,04,30,01,55,12.00
2004,04,30,01,56,12.00
2004,04,30,01,57,12.00
2004,04,30,01,58,11.90
2004,04,30,01,59,11.90
2004,04,30,02,00,11.90
2004,04,30,02,01,11.90
2004,04,30,02,02,12.00
2004,04,30,02,03,12.00
2004,04,30,02,04,11.90
2004,04,30,02,05,11.90
2004,04,30,02,06,11.90
2004,04,30,02,07,11.90
2004,04,30,02,08,11.80
2004,04,30,02,09,11.90
2004,04,30,02,10,11.90
2004,04,30,02,11,11.90
2004,04,30,02,12,11.90
2004,04,30,02,13,11.90
2004,04,30,02,14,11.80
2004,04,30,02,15,11.80
2004,04,30,02,16,11.80
2004,04,30,02,17,11.80
2004,04,30,02,18,11.80
2004,04,30,02,19,11.70
2004,04,30,02,20,11.60
2004,04,30,02,21,11.50
2004,04,30,02,22,11.60
2004,04,30,02,23,11.60
2004,04,30,02,24,11.60
2004,04,30,02,25,11.60
2004,04,30,02,26,11.70
2004,04,30,02,27,11.70
2004,04,30,02,28,11.70
2004,04,30,02,29,11.70
2004,04,30,02,30,11.70
2004,04,30,02,31,11.70
2004,04,30,02,32,11.70
2004,04,30,02,33,11.70
2004,04,30,02,34,11.70
2004,04,30,02,35,11.70
2004,04,30,02,36,11.60
2004,04,30,02,37,11.60
2004,04,30,02,38,11.50
2004,04,30,02,39,11.40
2004,04,30,02,40,11.40
2004,04,30,02,41,11.30
2004,04,30,02,42,11.20
2004,04,30,02,43,11.10
2004,04,30,02,44,11.10
2004,04,30,02,45,11.10
2004,04,30,02,46,11.10
2004,04,30,02,47,11.10
2004,04,30,02,48,11.10
2004,04,30,02,49,11.10
2004,04,30,02,50,11.10
2004,04,30,02,51,11.10
2004,04,30,02,52,11.20
2004,04,30,02,53,11.10
2004,04,30,02,54,11.20
2004,04,30,02,55,11.20
2004,04,30,02,56,11.10
2004,04,30,02,57,11.00
2004,04,30,02,58,11.00
2004,04,30,02,59,11.10
2004,04,30,03,00,11.10
2004,04,30,03,01,11.20
2004,04,30,03,02,11.10
2004,04,30,03,03,11.10
2004,04,30,03,04,11.10
2004,04,30,03,05,11.20
2004,04,30,03,06,11.20
2004,04,30,03,07,11.20
2004,04,30,03,08,11.30
2004,04,30,03,09,11.40
2004,04,30,03,10,11.40
2004,04,30,03,11,11.50
2004,04,30,03,12,11.50
2004,04,30,03,13,11.60
2004,04,30,03,14,11.50
2004,04,30,03,15,11.50
2004,04,30,03,16,11.60
2004,04,30,03,17,11.60
2004,04,30,03,18,11.70
2004,04,30,03,19,11.70
2004,04,30,03,20,11.60
2004,04,30,03,21,11.60
2004,04,30,03,22,11.40
2004,04,30,03,23,11.30
2004,04,30,03,24,11.30
2004,04,30,03,25,11.40
2004,04,30,03,26,11.50
2004,04,30,03,27,11.60
2004,04,30,03,28,11.50
2004,04,30,03,29,11.60
2004,04,30,03,30,11.50
2004,04,30,03,31,11.40
2004,04,30,03,32,11.20
2004,04,30,03,33,11.00
2004,04,30,03,34,10.90
2004,04,30,03,35,10.90
2004,04,30,03,36,10.90
2004,04,30,03,37,10.90
2004,04,30,03,38,10.90
2004,04,30,03,39,11.00
2004,04,30,03,40,11.00
2004,04,30,03,41,10.90
2004,04,30,03,42,10.90
2004,04,30,03,43,10.90
2004,04,30,03,44,10.90
2004,04,30,03,45,10.90
2004,04,30,03,46,10.90
2004,04,30,03,47,10.90
2004,04,30,03,48,10.90
2004,04,30,03,49,10.90
2004,04,30,03,50,10.90
2004,04,30,03,51,10.90
2004,04,30,03,52,10.90
2004,04,30,03,53,11.00
2004,04,30,03,54,10.90
2004,04,30,03,55,11.00
2004,04,30,03,56,10.90
2004,04,30,03,57,11.10
2004,04,30,03,58,11.10
2004,04,30,03,59,11.00
2004,04,30,04,00,10.90
2004,04,30,04,01,10.90
2004,04,30,04,02,10.90
2004,04,30,04,03,10.90
2004,04,30,04,04,10.80
2004,04,30,04,05,10.80
2004,04,30,04,06,10.70
2004,04,30,04,07,10.60
2004,04,30,04,08,10.50
2004,04,30,04,09,10.40
2004,04,30,04,10,10.30
2004,04,30,04,11,10.30
2004,04,30,04,12,10.30
2004,04,30,04,13,10.40
2004,04,30,04,14,10.40
2004,04,30,04,15,10.60
2004,04,30,04,16,10.60
2004,04,30,04,17,10.60
2004,04,30,04,18,10.70
2004,04,30,04,19,10.70
2004,04,30,04,20,10.70
2004,04,30,04,21,10.80
2004,04,30,04,22,10.80
2004,04,30,04,23,10.80
2004,04,30,04,24,10.90
2004,04,30,04,25,10.90
2004,04,30,04,26,10.90
2004,04,30,04,27,10.90
2004,04,30,04,28,11.00
2004,04,30,04,29,11.00
2004,04,30,04,30,10.90
2004,04,30,04,31,10.90
2004,04,30,04,32,10.90
2004,04,30,04,33,10.90
2004,04,30,04,34,10.90
2004,04,30,04,35,10.90
2004,04,30,04,36,10.90
2004,04,30,04,37,10.90
2004,04,30,04,38,10.90
2004,04,30,04,39,10.90
2004,04,30,04,40,10.90
2004,04,30,04,41,10.90
2004,04,30,04,42,11.00
2004,04,30,04,43,11.10
2004,04,30,04,44,11.10
2004,04,30,04,45,11.10
2004,04,30,04,46,11.10
2004,04,30,04,47,11.10
2004,04,30,04,48,11.00
2004,04,30,04,49,10.90
2004,04,30,04,50,10.90
2004,04,30,04,51,10.90
2004,04,30,04,52,10.80
2004,04,30,04,53,10.80
2004,04,30,04,54,10.70
2004,04,30,04,55,10.80
2004,04,30,04,56,10.80
2004,04,30,04,57,10.90
2004,04,30,04,58,10.90
2004,04,30,04,59,11.10
2004,04,30,05,00,11.10
2004,04,30,05,01,11.20
2004,04,30,05,02,11.20
2004,04,30,05,03,11.20
2004,04,30,05,04,11.30
2004,04,30,05,05,11.30
2004,04,30,05,06,11.30
2004,04,30,05,07,11.30
2004,04,30,05,08,11.30
2004,04,30,05,09,11.20
2004,04,30,05,10,11.20
2004,04,30,05,11,11.20
2004,04,30,05,12,11.20
2004,04,30,05,13,11.10
2004,04,30,05,14,11.10
2004,04,30,05,15,11.10
2004,04,30,05,16,11.10
2004,04,30,05,17,11.10
2004,04,30,05,18,11.10
2004,04,30,05,19,11.10
2004,04,30,05,20,11.10
2004,04,30,05,21,10.90
2004,04,30,05,22,10.80
2004,04,30,05,23,10.70
2004,04,30,05,24,10.50
2004,04,30,05,25,10.30
2004,04,30,05,26,10.10
2004,04,30,05,27,10.00
2004,04,30,05,28,9.90
2004,04,30,05,29,9.80
2004,04,30,05,30,9.80
2004,04,30,05,31,9.70
2004,04,30,05,32,9.70
2004,04,30,05,33,9.70
2004,04,30,05,34,9.70
2004,04,30,05,35,9.70
2004,04,30,05,36,9.80
2004,04,30,05,37,9.90
2004,04,30,05,38,10.00
2004,04,30,05,39,10.10
2004,04,30,05,40,10.10
2004,04,30,05,41,10.10
2004,04,30,05,42,10.10
2004,04,30,05,43,10.00
2004,04,30,05,44,9.90
2004,04,30,05,45,9.90
2004,04,30,05,46,9.80
2004,04,30,05,47,9.80
2004,04,30,05,48,9.90
2004,04,30,05,49,9.90
2004,04,30,05,50,9.90
2004,04,30,05,51,10.00
2004,04,30,05,52,10.20
2004,04,30,05,53,10.30
2004,04,30,05,54,10.40
2004,04,30,05,55,10.60
2004,04,30,05,56,10.60
2004,04,30,05,57,10.70
2004,04,30,05,58,10.80
2004,04,30,05,59,10.80
2004,04,30,06,00,10.80
2004,04,30,06,01,10.80
2004,04,30,06,02,10.80
2004,04,30,06,03,10.90
2004,04,30,06,04,11.00
2004,04,30,06,05,11.10
2004,04,30,06,06,11.30
2004,04,30,06,07,11.30
2004,04,30,06,08,11.20
2004,04,30,06,09,11.10
2004,04,30,06,10,11.10
2004,04,30,06,11,11.10
2004,04,30,06,12,11.10
2004,04,30,06,13,11.10
2004,04,30,06,14,11.10
2004,04,30,06,15,11.10
2004,04,30,06,16,11.00
2004,04,30,06,17,10.90
2004,04,30,06,18,10.90
2004,04,30,06,19,10.90
2004,04,30,06,20,11.00
2004,04,30,06,21,11.10
2004,04,30,06,22,11.10
2004,04,30,06,23,11.20
2004,04,30,06,24,11.20
2004,04,30,06,25,11.10
2004,04,30,06,26,11.00
2004,04,30,06,27,10.90
2004,04,30,06,28,10.90
2004,04,30,06,29,10.90
2004,04,30,06,30,10.90
2004,04,30,06,31,11.00
2004,04,30,06,32,11.10
2004,04,30,06,33,11.10
2004,04,30,06,34,11.20
2004,04,30,06,35,11.30
2004,04,30,06,36,11.40
2004,04,30,06,37,11.50
2004,04,30,06,38,11.60
2004,04,30,06,39,11.80
2004,04,30,06,40,11.80
2004,04,30,06,41,11.90
2004,04,30,06,42,11.90
2004,04,30,06,43,12.00
2004,04,30,06,44,12.10
2004,04,30,06,45,12.20
2004,04,30,06,46,12.20
2004,04,30,06,47,12.20
2004,04,30,06,48,12.20
2004,04,30,06,49,12.30
2004,04,30,06,50,12.30
2004,04,30,06,51,12.40
2004,04,30,06,52,12.40
2004,04,30,06,53,12.50
2004,04,30,06,54,12.60
2004,04,30,06,55,12.60
2004,04,30,06,56,12.70
2004,04,30,06,57,12.80
2004,04,30,06,58,12.80
2004,04,30,06,59,12.80
2004,04,30,07,00,12.80
2004,04,30,07,01,12.80
2004,04,30,07,02,12.90
2004,04,30,07,03,13.00
2004,04,30,07,04,13.10
2004,04,30,07,05,13.20
2004,04,30,07,06,13.30
2004,04,30,07,07,13.30
2004,04,30,07,08,13.40
2004,04,30,07,09,13.50
2004,04,30,07,10,13.50
2004,04,30,07,11,13.50
2004,04,30,07,12,13.60
2004,04,30,07,13,13.60
2004,04,30,07,14,13.60
2004,04,30,07,15,13.60
2004,04,30,07,16,13.70
2004,04,30,07,17,13.70
2004,04,30,07,18,13.70
2004,04,30,07,19,13.70
2004,04,30,07,20,13.70
2004,04,30,07,21,13.70
2004,04,30,07,22,13.70
2004,04,30,07,23,13.70
2004,04,30,07,24,13.70
2004,04,30,07,25,13.70
2004,04,30,07,26,13.70
2004,04,30,07,27,13.70
2004,04,30,07,28,13.80
2004,04,30,07,29,13.80
2004,04,30,07,30,13.90
2004,04,30,07,31,14.00
2004,04,30,07,32,14.00
2004,04,30,07,33,14.10
2004,04,30,07,34,14.20
2004,04,30,07,35,14.20
2004,04,30,07,36,14.20
2004,04,30,07,37,14.20
2004,04,30,07,38,14.30
2004,04,30,07,39,14.30
2004,04,30,07,40,14.40
2004,04,30,07,41,14.40
2004,04,30,07,42,14.40
2004,04,30,07,43,14.40
2004,04,30,07,44,14.50
2004,04,30,07,45,14.50
2004,04,30,07,46,14.60
2004,04,30,07,47,14.60
2004,04,30,07,48,14.60
2004,04,30,07,49,14.70
2004,04,30,07,50,14.70
2004,04,30,07,51,14.80
2004,04,30,07,52,14.80
2004,04,30,07,53,14.80
2004,04,30,07,54,14.80
2004,04,30,07,55,14.90
2004,04,30,07,56,14.90
2004,04,30,07,57,15.00
2004,04,30,07,58,15.00
2004,04,30,07,59,15.00
2004,04,30,08,00,15.10
2004,04,30,08,01,15.10
2004,04,30,08,02,15.10
2004,04,30,08,03,15.10
2004,04,30,08,04,15.10
2004,04,30,08,05,15.10
2004,04,30,08,06,15.20
2004,04,30,08,07,15.20
2004,04,30,08,08,15.20
2004,04,30,08,09,15.20
2004,04,30,08,10,15.20
2004,04,30,08,11,15.20
2004,04,30,08,12,15.20
2004,04,30,08,13,15.20
2004,04,30,08,14,15.20
2004,04,30,08,15,15.20
2004,04,30,08,16,15.20
2004,04,30,08,17,15.30
2004,04,30,08,18,15.30
2004,04,30,08,19,15.30
2004,04,30,08,20,15.30
2004,04,30,08,21,15.30
2004,04,30,08,22,15.30
2004,04,30,08,23,15.30
2004,04,30,08,24,15.30
2004,04,30,08,25,15.20
2004,04,30,08,26,15.20
2004,04,30,08,27,15.20
2004,04,30,08,28,15.30
2004,04,30,08,29,15.30
2004,04,30,08,30,15.20
2004,04,30,08,31,15.20
2004,04,30,08,32,15.20
2004,04,30,08,33,15.20
2004,04,30,08,34,15.20
2004,04,30,08,35,15.20
2004,04,30,08,36,15.30
2004,04,30,08,37,15.30
2004,04,30,08,38,15.30
2004,04,30,08,39,15.30
2004,04,30,08,40,15.40
2004,04,30,08,41,15.40
2004,04,30,08,42,15.40
2004,04,30,08,43,15.50
2004,04,30,08,44,15.50
2004,04,30,08,45,15.40
2004,04,30,08,46,15.30
2004,04,30,08,47,15.30
2004,04,30,08,48,15.30
2004,04,30,08,49,15.30
2004,04,30,08,50,15.30
2004,04,30,08,51,15.30
2004,04,30,08,52,15.30
2004,04,30,08,53,15.30
2004,04,30,08,54,15.30
2004,04,30,08,55,15.30
2004,04,30,08,56,15.30
2004,04,30,08,57,15.30
2004,04,30,08,58,15.30
2004,04,30,08,59,15.30
2004,04,30,09,00,15.30
2004,04,30,09,01,15.30
2004,04,30,09,02,15.30
2004,04,30,09,03,15.30
2004,04,30,09,04,15.30
2004,04,30,09,05,15.30
2004,04,30,09,06,15.30
2004,04,30,09,07,15.30
2004,04,30,09,08,15.30
2004,04,30,09,09,15.30
2004,04,30,09,10,15.30
2004,04,30,09,11,15.30
2004,04,30,09,12,15.30
2004,04,30,09,13,15.30
2004,04,30,09,14,15.30
2004,04,30,09,15,15.30
2004,04,30,09,16,15.30
2004,04,30,09,17,15.30
2004,04,30,09,18,15.30
2004,04,30,09,19,15.30
2004,04,30,09,20,15.20
2004,04,30,09,21,15.30
2004,04,30,09,22,15.30
2004,04,30,09,23,15.30
2004,04,30,09,24,15.30
2004,04,30,09,25,15.40
2004,04,30,09,26,15.40
2004,04,30,09,27,15.40
2004,04,30,09,28,15.40
2004,04,30,09,29,15.40
2004,04,30,09,30,15.40
2004,04,30,09,31,15.40
2004,04,30,09,32,15.50
2004,04,30,09,33,15.50
2004,04,30,09,34,15.40
2004,04,30,09,35,15.50
2004,04,30,09,36,15.50
2004,04,30,09,37,15.70
2004,04,30,09,38,15.80
2004,04,30,09,39,15.80
2004,04,30,09,40,15.90
2004,04,30,09,41,15.90
2004,04,30,09,42,15.80
2004,04,30,09,43,15.80
2004,04,30,09,44,15.70
2004,04,30,09,45,15.70
2004,04,30,09,46,15.70
2004,04,30,09,47,15.70
2004,04,30,09,48,15.60
2004,04,30,09,49,15.60
2004,04,30,09,50,15.70
2004,04,30,09,51,15.80
2004,04,30,09,52,15.80
2004,04,30,09,53,15.80
2004,04,30,09,54,15.80
2004,04,30,09,55,15.80
2004,04,30,09,56,15.80
2004,04,30,09,57,15.80
2004,04,30,09,58,15.80
2004,04,30,09,59,15.80
2004,04,30,10,00,15.80
2004,04,30,10,01,15.80
2004,04,30,10,02,15.80
2004,04,30,10,03,15.80
2004,04,30,10,04,15.90
2004,04,30,10,05,16.00
2004,04,30,10,06,16.00
2004,04,30,10,07,16.10
2004,04,30,10,08,16.10
2004,04,30,10,09,16.20
2004,04,30,10,10,16.30
2004,04,30,10,11,16.40
2004,04,30,10,12,16.40
2004,04,30,10,13,16.40
2004,04,30,10,14,16.40
2004,04,30,10,15,16.30
2004,04,30,10,16,16.30
2004,04,30,10,17,16.30
2004,04,30,10,18,16.30
2004,04,30,10,19,16.30
2004,04,30,10,20,16.40
2004,04,30,10,21,16.40
2004,04,30,10,22,16.40
2004,04,30,10,23,16.40
2004,04,30,10,24,16.50
2004,04,30,10,25,16.50
2004,04,30,10,26,16.40
2004,04,30,10,27,16.50
2004,04,30,10,28,16.50
2004,04,30,10,29,16.60
2004,04,30,10,30,16.60
2004,04,30,10,31,16.70
2004,04,30,10,32,16.80
2004,04,30,10,33,16.90
2004,04,30,10,34,17.00
2004,04,30,10,35,17.00
2004,04,30,10,36,17.20
2004,04,30,10,37,17.20
2004,04,30,10,38,17.30
2004,04,30,10,39,17.30
2004,04,30,10,40,17.20
2004,04,30,10,41,17.10
2004,04,30,10,42,17.00
2004,04,30,10,43,17.00
2004,04,30,10,44,17.00
2004,04,30,10,45,16.90
2004,04,30,10,46,16.90
2004,04,30,10,47,16.90
2004,04,30,10,48,17.00
2004,04,30,10,49,17.00
2004,04,30,10,50,17.20
2004,04,30,10,51,17.30
2004,04,30,10,52,17.30
2004,04,30,10,53,17.30
2004,04,30,10,54,17.30
2004,04,30,10,55,17.30
2004,04,30,10,56,17.20
2004,04,30,10,57,17.20
2004,04,30,10,58,17.20
2004,04,30,10,59,17.30
2004,04,30,11,00,17.40
2004,04,30,11,01,17.50
2004,04,30,11,02,17.60
2004,04,30,11,03,17.70
2004,04,30,11,04,17.80
2004,04,30,11,05,17.90
2004,04,30,11,06,17.90
2004,04,30,11,07,17.90
2004,04,30,11,08,17.90
2004,04,30,11,09,17.90
2004,04,30,11,10,17.90
2004,04,30,11,11,17.90
2004,04,30,11,12,18.00
2004,04,30,11,13,18.10
2004,04,30,11,14,18.10
2004,04,30,11,15,18.10
2004,04,30,11,16,18.10
2004,04,30,11,17,18.10
2004,04,30,11,18,18.10
2004,04,30,11,19,18.20
2004,04,30,11,20,18.20
2004,04,30,11,21,18.20
2004,04,30,11,22,18.20
2004,04,30,11,23,18.30
2004,04,30,11,24,18.40
2004,04,30,11,25,18.50
2004,04,30,11,26,18.60
2004,04,30,11,27,18.60
2004,04,30,11,28,18.60
2004,04,30,11,29,18.70
2004,04,30,11,30,18.90
2004,04,30,11,31,18.90
2004,04,30,11,32,19.00
2004,04,30,11,33,19.10
2004,04,30,11,34,19.10
2004,04,30,11,35,19.10
2004,04,30,11,36,19.00
2004,04,30,11,37,18.90
2004,04,30,11,38,19.00
2004,04,30,11,39,19.10
2004,04,30,11,40,19.00
2004,04,30,11,41,19.00
2004,04,30,11,42,19.00
2004,04,30,11,43,19.10
2004,04,30,11,44,19.20
2004,04,30,11,45,19.30
2004,04,30,11,46,19.30
2004,04,30,11,47,19.30
2004,04,30,11,48,19.30
2004,04,30,11,49,19.30
2004,04,30,11,50,19.30
2004,04,30,11,51,19.30
2004,04,30,11,52,19.30
2004,04,30,11,53,19.30
2004,04,30,11,54,19.30
2004,04,30,11,55,19.30
2004,04,30,11,56,19.40
2004,04,30,11,57,19.40
2004,04,30,11,58,19.40
2004,04,30,11,59,19.50
2004,04,30,12,00,19.40
2004,04,30,12,01,19.40
2004,04,30,12,02,19.40
2004,04,30,12,03,19.40
2004,04,30,12,04,19.40
2004,04,30,12,05,19.50
2004,04,30,12,06,19.50
2004,04,30,12,07,19.40
2004,04,30,12,08,19.30
2004,04,30,12,09,19.40
2004,04,30,12,10,19.40
2004,04,30,12,11,19.40
2004,04,30,12,12,19.40
2004,04,30,12,13,19.40
2004,04,30,12,14,19.40
2004,04,30,12,15,19.40
2004,04,30,12,16,19.40
2004,04,30,12,17,19.40
2004,04,30,12,18,19.30
2004,04,30,12,19,19.30
2004,04,30,12,20,19.30
2004,04,30,12,21,19.40
2004,04,30,12,22,19.40
2004,04,30,12,23,19.50
2004,04,30,12,24,19.40
2004,04,30,12,25,19.40
2004,04,30,12,26,19.40
2004,04,30,12,27,19.50
2004,04,30,12,28,19.60
2004,04,30,12,29,19.70
2004,04,30,12,30,19.80
2004,04,30,12,31,19.90
2004,04,30,12,32,20.00
2004,04,30,12,33,20.20
2004,04,30,12,34,20.20
2004,04,30,12,35,20.20
2004,04,30,12,36,20.20
2004,04,30,12,37,20.20
2004,04,30,12,38,20.10
2004,04,30,12,39,20.20
2004,04,30,12,40,20.20
2004,04,30,12,41,20.20
2004,04,30,12,42,20.30
2004,04,30,12,43,20.40
2004,04,30,12,44,20.50
2004,04,30,12,45,20.60
2004,04,30,12,46,20.70
2004,04,30,12,47,20.60
2004,04,30,12,48,20.60
2004,04,30,12,49,20.50
2004,04,30,12,50,20.40
2004,04,30,12,51,20.40
2004,04,30,12,52,20.30
2004,04,30,12,53,20.40
2004,04,30,12,54,20.40
2004,04,30,12,55,20.40
2004,04,30,12,56,20.40
2004,04,30,12,57,20.40
2004,04,30,12,58,20.50
2004,04,30,12,59,20.70
2004,04,30,13,00,20.80
2004,04,30,13,01,20.80
2004,04,30,13,02,20.90
2004,04,30,13,03,20.90
2004,04,30,13,04,21.00
2004,04,30,13,05,20.90
2004,04,30,13,06,20.90
2004,04,30,13,07,20.80
2004,04,30,13,08,20.90
2004,04,30,13,09,20.90
2004,04,30,13,10,21.00
2004,04,30,13,11,20.90
2004,04,30,13,12,20.90
2004,04,30,13,13,20.90
2004,04,30,13,14,20.90
2004,04,30,13,15,20.80
2004,04,30,13,16,20.80
2004,04,30,13,17,21.00
2004,04,30,13,18,20.80
2004,04,30,13,19,20.70
2004,04,30,13,20,20.60
2004,04,30,13,21,20.80
2004,04,30,13,22,21.00
2004,04,30,13,23,21.10
2004,04,30,13,24,21.30
2004,04,30,13,25,21.30
2004,04,30,13,26,21.30
2004,04,30,13,27,21.30
2004,04,30,13,28,21.30
2004,04,30,13,29,21.30
2004,04,30,13,30,21.30
2004,04,30,13,31,21.40
2004,04,30,13,32,21.50
2004,04,30,13,33,21.60
2004,04,30,13,34,21.60
2004,04,30,13,35,21.60
2004,04,30,13,36,21.60
2004,04,30,13,37,21.60
2004,04,30,13,38,21.60
2004,04,30,13,39,21.60
2004,04,30,13,40,21.60
2004,04,30,13,41,21.60
2004,04,30,13,42,21.60
2004,04,30,13,43,21.70
2004,04,30,13,44,21.70
2004,04,30,13,45,21.70
2004,04,30,13,46,21.90
2004,04,30,13,47,22.10
2004,04,30,13,48,22.20
2004,04,30,13,49,22.20
2004,04,30,13,50,22.00
2004,04,30,13,51,22.10
2004,04,30,13,52,22.20
2004,04,30,13,53,22.20
2004,04,30,13,54,22.10
2004,04,30,13,55,22.10
2004,04,30,13,56,22.20
2004,04,30,13,57,22.20
2004,04,30,13,58,22.20
2004,04,30,13,59,22.20
2004,04,30,14,00,22.20
2004,04,30,14,01,22.10
2004,04,30,14,02,22.00
2004,04,30,14,03,22.00
2004,04,30,14,04,22.00
2004,04,30,14,05,22.10
2004,04,30,14,06,22.10
2004,04,30,14,07,22.10
2004,04,30,14,08,22.10
2004,04,30,14,09,22.20
2004,04,30,14,10,22.30
2004,04,30,14,11,22.40
2004,04,30,14,12,22.40
2004,04,30,14,13,22.40
2004,04,30,14,14,22.40
2004,04,30,14,15,22.50
2004,04,30,14,16,22.50
2004,04,30,14,17,22.50
2004,04,30,14,18,22.40
2004,04,30,14,19,22.40
2004,04,30,14,20,22.40
2004,04,30,14,21,22.40
2004,04,30,14,22,22.60
2004,04,30,14,23,22.70
2004,04,30,14,24,22.70
2004,04,30,14,25,22.80
2004,04,30,14,26,22.80
2004,04,30,14,27,22.80
2004,04,30,14,28,22.70
2004,04,30,14,29,22.60
2004,04,30,14,30,22.70
2004,04,30,14,31,22.60
2004,04,30,14,32,22.60
2004,04,30,14,33,22.60
2004,04,30,14,34,22.60
2004,04,30,14,35,22.60
2004,04,30,14,36,22.50
2004,04,30,14,37,22.50
2004,04,30,14,38,22.60
2004,04,30,14,39,22.60
2004,04,30,14,40,22.60
2004,04,30,14,41,22.70
2004,04,30,14,42,22.80
2004,04,30,14,43,22.80
2004,04,30,14,44,23.00
2004,04,30,14,45,23.10
2004,04,30,14,46,23.30
2004,04,30,14,47,23.20
2004,04,30,14,48,23.20
2004,04,30,14,49,23.20
2004,04,30,14,50,23.20
2004,04,30,14,51,23.20
2004,04,30,14,52,23.20
2004,04,30,14,53,23.10
2004,04,30,14,54,23.10
2004,04,30,14,55,23.10
2004,04,30,14,56,23.10
2004,04,30,14,57,23.10
2004,04,30,14,58,23.30
2004,04,30,14,59,23.50
2004,04,30,15,00,23.70
2004,04,30,15,01,23.90
2004,04,30,15,02,24.10
2004,04,30,15,03,24.30
2004,04,30,15,04,24.20
2004,04,30,15,05,24.30
2004,04,30,15,06,24.40
2004,04,30,15,07,24.30
2004,04,30,15,08,24.30
2004,04,30,15,09,24.20
2004,04,30,15,10,24.20
2004,04,30,15,11,24.20
2004,04,30,15,12,24.00
2004,04,30,15,13,23.90
2004,04,30,15,14,24.00
2004,04,30,15,15,24.10
2004,04,30,15,16,24.30
2004,04,30,15,17,24.50
2004,04,30,15,18,24.50
2004,04,30,15,19,24.50
2004,04,30,15,20,24.50
2004,04,30,15,21,24.40
2004,04,30,15,22,24.20
2004,04,30,15,23,24.20
2004,04,30,15,24,24.20
2004,04,30,15,25,24.20
2004,04,30,15,26,24.30
2004,04,30,15,27,24.30
2004,04,30,15,28,24.20
2004,04,30,15,29,24.40
2004,04,30,15,30,24.40
2004,04,30,15,31,24.50
2004,04,30,15,32,24.50
2004,04,30,15,33,24.50
2004,04,30,15,34,24.50
2004,04,30,15,35,24.30
2004,04,30,15,36,24.20
2004,04,30,15,37,24.20
2004,04,30,15,38,24.20
2004,04,30,15,39,24.10
2004,04,30,15,40,24.00
2004,04,30,15,41,23.90
2004,04,30,15,42,23.80
2004,04,30,15,43,23.90
2004,04,30,15,44,24.00
2004,04,30,15,45,24.10
2004,04,30,15,46,24.10
2004,04,30,15,47,24.00
2004,04,30,15,48,24.00
2004,04,30,15,49,23.90
2004,04,30,15,50,23.80
2004,04,30,15,51,23.80
2004,04,30,15,52,23.80
2004,04,30,15,53,23.90
2004,04,30,15,54,23.90
2004,04,30,15,55,23.90
2004,04,30,15,56,23.80
2004,04,30,15,57,23.70
2004,04,30,15,58,23.80
2004,04,30,15,59,23.80
2004,04,30,16,00,24.00
2004,04,30,16,01,23.90
2004,04,30,16,02,23.90
2004,04,30,16,03,23.90
2004,04,30,16,04,23.90
2004,04,30,16,05,23.90
2004,04,30,16,06,23.80
2004,04,30,16,07,23.80
2004,04,30,16,08,23.80
2004,04,30,16,09,23.80
2004,04,30,16,10,23.90
2004,04,30,16,11,24.10
2004,04,30,16,12,24.10
2004,04,30,16,13,24.40
2004,04,30,16,14,24.50
2004,04,30,16,15,24.60
2004,04,30,16,16,24.70
2004,04,30,16,17,24.60
2004,04,30,16,18,24.60
2004,04,30,16,19,24.60
2004,04,30,16,20,24.50
2004,04,30,16,21,24.50
2004,04,30,16,22,24.50
2004,04,30,16,23,24.60
2004,04,30,16,24,24.60
2004,04,30,16,25,24.50
2004,04,30,16,26,24.50
2004,04,30,16,27,24.40
2004,04,30,16,28,24.40
2004,04,30,16,29,24.40
2004,04,30,16,30,24.50
2004,04,30,16,31,24.60
2004,04,30,16,32,24.60
2004,04,30,16,33,24.60
2004,04,30,16,34,24.60
2004,04,30,16,35,24.70
2004,04,30,16,36,24.70
2004,04,30,16,37,24.70
2004,04,30,16,38,24.60
2004,04,30,16,39,24.50
2004,04,30,16,40,24.40
2004,04,30,16,41,24.30
2004,04,30,16,42,24.30
2004,04,30,16,43,24.30
2004,04,30,16,44,24.20
2004,04,30,16,45,24.20
2004,04,30,16,46,24.20
2004,04,30,16,47,24.20
2004,04,30,16,48,24.30
2004,04,30,16,49,24.30
2004,04,30,16,50,24.50
2004,04,30,16,51,24.50
2004,04,30,16,52,24.60
2004,04,30,16,53,24.70
2004,04,30,16,54,24.70
2004,04,30,16,55,24.80
2004,04,30,16,56,24.80
2004,04,30,16,57,24.80
2004,04,30,16,58,24.90
2004,04,30,16,59,24.80
2004,04,30,17,00,24.70
2004,04,30,17,01,24.60
2004,04,30,17,02,24.50
2004,04,30,17,03,24.50
2004,04,30,17,04,24.40
2004,04,30,17,05,24.40
2004,04,30,17,06,24.50
2004,04,30,17,07,24.40
2004,04,30,17,08,24.40
2004,04,30,17,09,24.40
2004,04,30,17,10,24.40
2004,04,30,17,11,24.40
2004,04,30,17,12,24.40
2004,04,30,17,13,24.50
2004,04,30,17,14,24.60
2004,04,30,17,15,24.70
2004,04,30,17,16,24.70
2004,04,30,17,17,24.70
2004,04,30,17,18,24.70
2004,04,30,17,19,24.80
2004,04,30,17,20,24.80